Location: La Oliva
(42.2466°N, 2.9955°E)
Time: 06:51:43
(UTC+00:00)

SJ-6B - Pass Details

Date: 22 April 2021
Orbit: 510 x 580 km, 97.6° (Epoch: 07 May)

Event Time Altitude Azimuth Distance (km) Brightness Sun altitude
Exits shadow 19:12:31 - 150° (SSE) 2,257 5.5 -6.9°
Reaches altitude 10° 19:13:48 10° 145° (SE) 1,727 4.8 -7.1°
Maximum altitude 19:17:21 44° 73° (ENE) 722 3.1 -7.7°
Drops below altitude 10° 19:20:57 10° 1° (N) 1,757 5.7 -8.3°
Sets 19:23:07 0° 355° (N) 2,659 6.8 -8.7°
